Wind_Speed
5 3 10 12 12 6 4 6 7 4 5 3 4 5 4 3 6 5 3 6 5 5 2 4 7 10 10 11 12 14 15 16 17 23 24 23 26 24 26 25 27 28 29
3 4 10 11 10 8 6 5 4 6 6 6 3 3 3 4 5 5 6 4 6 6 6 6 8 11 11 12 12 15 18 17 18 22 24 26 25 23 26 26 28 28 29
9 11 11 12 10 8 7 9 9 6 5 4 5 7 7 9 8 8 5 5 7 7 8 10 12 10 11 12 14 16 17 19 18 21 26 25 25 27 26 27 29 29 27
8 9 10 8 9 10 10 10 7 6 5 7 8 9 7 5 7 7 8 9 10 9 12 12 14 13 12 11 14 16 18 17 20 21 23 25 25 25 24 27 29 28 30
7 9 10 10 9 8 7 7 7 7 6 6 6 7 7 8 9 9 11 12 13 14 16 16 16 15 17 16 12 15 15 17 18 20 20 23 25 27 25 25 26 29 31
10 10 9 9 9 8 6 6 6 6 6 7 8 9 10 10 11 13 14 13 15 16 19 19 18 18 18 12 14 16 18 17 18 18 21 20 24 26 26 24 26 25 17
10 9 8 8 8 7 6 5 6 7 7 9 10 10 12 13 15 15 16 15 17 18 20 19 18 18 13 13 13 18 19 20 22 23 24 22 23 25 27 28 22 24 25
9 10 9 8 7 7 6 5 6 7 8 9 10 11 12 14 13 15 16 16 18 20 22 21 20 20 18 18 13 16 18 17 16 17 20 23 22 25 23 22 24 27 27
7 6 7 6 5 5 6 5 7 8 10 10 14 12 13 14 14 16 17 16 19 23 25 22 22 20 18 21 15 16 19 20 16 15 23 23 23 22 20 18 20 17 19
4 4 5 4 6 6 6 7 9 11 13 13 14 13 14 16 18 19 20 17 20 22 20 23 22 22 25 24 21 15 18 19 18 21 20 22 21 15 16 17 17 20 20
4 5 5 5 5 6 7 9 10 12 13 14 15 16 17 17 18 19 21 20 20 21 22 24 22 20 21 27 25 20 21 20 20 19 22 21 18 16 15 12 18 19 21
7 7 7 8 9 9 10 10 11 13 16 18 20 19 18 23 22 18 19 21 23 22 22 23 24 23 18 21 26 29 26 22 20 21 22 21 18 18 17 19 22 19 20
9 9 10 11 12 13 13 14 15 18 21 20 20 17 14 10 12 18 22 22 23 19 25 26 25 28 32 27 29 31 29 21 22 24 22 20 18 18 19 20 17 20 21
9 11 13 15 16 16 17 18 18 20 20 21 15 17 14 14 18 17 17 19 23 25 25 26 26 26 27 30 28 25 22 23 26 25 21 24 22 20 20 20 19 22 22
10 12 13 15 15 15 17 16 17 18 15 17 18 19 19 20 20 17 23 20 22 21 21 25 27 27 27 27 28 28 27 28 32 30 24 24 23 22 22 19 18 22 21
11 13 13 11 12 13 14 16 21 23 21 23 25 28 27 29 31 33 34 34 35 34 25 25 28 28 27 28 27 25 26 29 31 28 25 23 24 22 23 21 20 21 18
11 11 11 13 14 13 14 16 17 18 23 26 29 31 32 35 34 34 34 33 33 33 24 28 28 28 29 29 28 26 28 30 30 28 25 23 20 22 25 21 18 18 20
13 14 14 15 15 15 16 16 18 19 20 21 21 27 32 35 36 35 35 38 30 25 25 27 27 28 29 28 26 24 27 28 30 29 28 27 26 25 21 26 21 19 16
15 17 17 16 16 15 17 19 20 22 23 24 23 24 28 30 31 34 34 32 28 26 27 25 23 20 12 11 25 24 23 27 33 42 25 25 22 21 20 21 22 20 22
17 19 19 17 18 18 19 21 22 21 19 21 23 25 26 23 15 13 26 28 27 30 30 11 17 19 17 21 30 28 28 23 20 18 25 24 25 23 24 18 18 24 24
18 17 17 19 21 23 22 24 23 21 24 26 27 24 23 19 18 22 16 22 18 23 35 27 16 12 22 24 23 16 18 24 28 24 20 20 18 16 17 20 22 23 23
16 17 18 19 19 19 21 22 21 23 27 23 29 16 14 12 18 13 7 11 12 16 15 12 13 16 25 22 19 18 16 17 16 15 17 18 19 19 19 19 20 19 17
18 20 21 22 24 24 23 24 24 19 19 26 25 15 20 23 20 16 13 16 20 19 16 12 17 20 16 11 7 6 12 14 15 16 17 17 19 19 19 18 17 17 18
21 23 24 25 24 21 22 27 27 21 25 19 18 21 21 18 13 13 22 21 17 16 16 15 13 10 7 8 8 9 4 9 13 14 16 18 19 16 16 17 17 16 17
22 22 22 23 21 21 23 20 25 23 19 17 17 17 12 17 19 19 17 17 16 13 12 10 10 12 9 5 2 5 8 11 15 17 17 19 20 21 20 13 15 17 20
20 20 22 21 17 16 16 17 17 17 17 15 16 16 15 18 20 11 9 13 15 17 15 15 10 10 9 5 4 4 9 13 17 20 23 20 20 22 21 13 14 19 21
Wind_Direction
355 349 177 167 174 153 130 113 113 133 145 115 118 103 131 246 258 143 171 200 218 222 319 342 342 321 330 326 324 323 317 310 306 303 308 309 310 309 309 308 310 308 307
27 121 143 156 131 142 128 119 106 162 159 166 200 245 230 168 156 189 181 233 271 299 339 319 317 313 316 313 323 326 313 303 301 303 306 311 309 311 316 313 315 310 307
118 124 138 138 147 146 142 159 166 175 185 182 215 207 193 186 207 220 224 245 274 286 291 286 290 300 302 311 312 317 313 307 299 304 302 303 314 314 319 315 313 311 309
134 134 135 138 148 148 155 157 161 175 199 206 216 209 208 229 248 251 261 268 271 281 284 291 294 289 278 296 305 307 303 312 301 292 304 309 315 319 317 317 316 315 314
128 133 134 139 145 141 156 155 164 171 193 207 220 230 235 241 246 252 254 264 279 283 282 281 281 280 289 284 275 294 301 299 303 302 307 310 312 322 315 313 309 312 311
141 142 144 143 145 148 162 168 177 197 220 236 252 259 260 261 261 257 261 266 273 280 284 281 279 282 286 266 298 300 298 289 290 290 301 301 306 312 317 313 308 306 305
144 137 148 155 155 159 165 194 208 227 240 252 259 263 267 266 262 262 263 263 266 274 276 279 288 289 283 285 282 295 297 292 283 278 272 280 298 309 307 310 311 301 296
148 151 158 171 176 177 186 213 241 252 251 257 264 265 265 272 265 261 266 264 265 265 265 266 269 273 276 274 275 293 296 298 296 288 288 294 293 291 294 304 305 297 294
154 161 172 192 211 221 232 243 261 275 278 281 267 263 261 273 268 265 267 261 261 258 261 265 268 270 271 274 268 283 294 300 305 302 304 296 290 290 287 288 304 310 303
173 191 205 220 242 249 262 267 275 271 268 275 280 283 280 275 273 266 269 266 261 270 283 276 277 258 259 254 254 259 277 289 297 307 307 294 298 300 306 269 292 313 312
209 220 225 235 248 253 263 273 278 278 283 283 285 284 280 271 266 261 265 262 263 273 282 295 295 291 267 248 249 251 257 276 288 300 292 300 306 312 318 318 310 303 307
210 222 228 239 254 276 239 263 270 276 274 267 261 263 270 248 244 252 255 254 254 261 271 281 291 303 304 267 252 262 269 275 275 284 284 297 306 312 316 314 298 289 296
218 231 243 252 260 263 263 270 268 258 254 271 272 274 280 308 284 262 245 252 259 273 286 280 278 281 278 273 262 260 266 260 264 273 278 291 298 305 301 303 312 317 306
240 247 253 255 256 259 263 261 250 254 247 260 271 273 273 270 278 286 291 258 262 254 261 271 275 283 277 268 265 261 251 246 252 257 278 286 287 293 299 306 310 314 312
257 260 264 266 257 254 240 258 264 272 280 286 290 292 296 292 289 286 293 286 282 281 275 283 282 281 280 273 262 250 245 243 238 242 247 259 278 283 286 296 301 302 309
266 259 256 274 282 269 268 260 247 249 256 259 262 262 268 269 272 274 276 277 280 284 285 275 273 272 272 272 270 269 258 240 239 243 249 252 258 270 277 285 294 293 308
254 275 277 268 267 265 267 271 275 275 254 251 255 257 259 262 265 267 270 273 274 276 269 267 264 265 268 269 268 267 260 252 248 243 247 249 259 264 262 262 265 273 284
248 260 268 270 267 270 271 273 278 282 288 289 280 261 264 264 266 270 271 269 272 266 255 255 256 260 263 266 268 279 285 283 267 253 249 245 242 248 257 272 274 269 274
248 258 267 275 282 288 288 284 277 272 272 278 283 279 273 276 271 266 260 259 257 262 267 267 270 301 304 287 329 332 337 329 321 337 2 353 330 293 272 270 272 283 277
262 255 259 273 278 275 270 270 274 275 277 277 277 277 283 294 303 360 334 289 259 245 253 301 329 323 318 329 325 320 313 302 316 325 307 316 324 326 319 320 319 301 294
271 270 249 256 261 261 262 269 277 273 265 265 269 278 282 280 278 302 294 285 303 317 328 327 312 304 321 323 319 312 310 313 318 322 323 331 316 305 310 304 296 299 301
269 271 274 279 285 286 286 285 281 289 285 298 318 273 272 292 310 303 305 307 300 301 296 289 301 301 303 300 295 300 306 310 316 327 328 323 318 313 307 302 298 298 297
273 279 283 282 282 279 271 275 270 288 304 267 265 319 308 301 317 305 308 316 308 306 293 286 293 299 301 306 313 313 323 321 319 317 317 313 310 309 308 301 301 299 296
269 269 270 277 282 291 287 278 282 288 291 305 330 309 315 317 316 312 314 312 310 307 297 300 300 295 301 311 298 307 28 335 332 326 321 309 300 301 303 300 293 291 288
278 289 294 293 293 292 294 304 318 316 331 342 338 344 343 324 319 314 309 328 324 321 316 309 304 302 297 272 304 351 342 342 338 332 322 312 303 298 287 285 299 303 304
287 288 287 289 291 298 325 338 334 336 357 357 352 341 323 310 301 337 11 335 328 319 319 312 315 293 276 283 156 325 327 335 335 332 325 313 301 294 299 309 315 312 308
Height
817 815 822 825 832 832 830 829 827 834 837 839 840 841 836 842 849 846 847 850 852 851 849 846 846 849 847 844 843 841 838 836 830 824 825 819 814 810 807 804 801 796 793
819 819 825 830 828 831 830 830 831 837 838 838 839 841 842 843 845 847 847 851 851 850 847 845 846 848 848 845 843 840 838 836 831 823 820 817 812 807 802 800 796 793 789
820 823 827 828 830 830 829 833 836 838 839 839 841 843 845 843 844 847 845 846 847 846 846 847 846 844 846 844 843 838 836 834 829 825 818 814 808 804 798 795 793 788 784
822 824 826 828 830 832 835 835 837 839 841 843 845 846 846 846 846 845 847 847 846 844 845 845 845 844 842 841 840 837 834 832 828 823 816 811 809 804 799 794 788 786 780
824 825 826 829 831 833 836 836 837 839 843 845 845 845 844 845 844 844 845 845 844 843 843 842 841 839 838 837 835 834 831 830 824 822 814 812 807 803 800 794 789 782 778
825 826 829 830 832 833 837 837 839 841 842 843 843 843 842 842 841 841 843 843 843 841 840 839 837 835 832 832 831 828 828 826 822 820 815 810 807 804 799 792 785 785 775
824 827 829 832 833 834 835 839 839 840 841 841 841 839 839 839 839 840 840 841 840 837 836 835 834 831 830 830 829 827 822 819 817 813 810 807 802 799 796 790 782 783 777
824 825 829 831 832 832 833 835 837 837 837 837 836 836 835 835 834 835 836 836 835 833 830 828 826 825 825 825 824 822 819 815 812 809 807 804 799 792 794 786 779 779 773
825 826 827 830 831 831 831 832 835 834 834 834 832 832 831 830 830 831 832 831 830 826 822 819 818 817 817 818 817 817 813 810 805 804 801 797 789 787 781 779 780 774 767
823 826 828 828 830 830 830 831 832 833 832 831 829 828 827 826 826 826 825 824 822 819 815 812 811 811 812 810 809 810 808 805 802 797 792 786 783 776 773 774 774 765 763
825 826 827 828 829 829 830 830 830 830 830 828 826 824 822 820 819 819 819 818 818 815 811 807 805 804 803 802 802 801 800 799 795 790 785 781 779 774 770 770 769 765 756
824 825 825 826 826 824 826 826 827 827 825 823 820 817 813 810 811 810 810 810 811 810 808 805 802 798 797 797 797 794 793 793 791 786 781 777 772 769 765 764 761 757 755
822 823 823 823 823 823 823 823 823 821 819 816 811 807 804 804 804 802 803 803 803 804 803 799 796 794 793 791 789 788 788 787 785 779 773 770 767 764 761 757 755 752 746
819 820 819 819 818 818 817 815 815 813 811 808 805 803 801 802 800 799 798 797 796 795 794 793 790 788 785 783 781 778 776 775 773 769 766 766 762 759 755 752 749 747 742
815 814 813 812 811 811 811 811 809 807 807 805 803 801 798 795 793 793 793 792 791 790 789 787 783 779 775 770 766 763 762 761 761 759 757 756 754 753 750 747 744 742 737
811 810 807 806 804 803 803 802 802 802 802 801 800 799 796 793 790 788 786 784 782 781 780 778 773 769 764 759 754 751 750 747 747 745 743 743 744 744 743 741 739 737 734
810 808 806 804 801 799 799 798 796 793 791 790 788 786 784 782 779 777 775 773 772 771 769 766 763 758 753 749 744 741 738 735 732 730 729 730 732 733 733 731 730 730 727
807 806 805 801 799 796 794 792 790 787 783 780 777 776 775 771 768 767 766 765 763 759 755 753 749 745 741 736 732 730 728 727 724 719 720 718 717 719 721 724 721 720 719
801 799 796 794 792 791 790 789 786 782 778 774 770 767 763 760 758 757 756 755 754 752 746 739 735 735 735 732 733 731 727 732 728 717 701 714 715 710 709 712 710 711 711
793 792 792 792 789 787 783 779 775 772 769 766 763 758 755 753 751 755 750 748 747 737 736 734 734 733 736 733 731 728 726 726 725 724 720 719 713 712 716 713 712 712 708
785 783 782 781 778 775 772 769 765 763 761 756 751 748 747 745 747 745 741 747 743 741 735 735 732 732 732 730 730 728 726 722 717 716 712 709 709 709 708 710 708 706 704
780 777 773 770 769 767 764 761 758 755 753 749 754 748 745 743 741 741 738 739 738 735 734 733 732 730 729 728 728 726 724 721 719 716 714 712 711 708 707 706 704 702 700
774 771 767 764 760 757 755 754 751 747 746 742 739 740 742 737 736 738 737 734 734 731 730 730 728 727 726 725 725 724 724 722 721 719 715 713 711 709 707 704 701 699 697
769 765 760 755 752 750 749 745 740 739 739 737 730 737 735 735 736 737 735 733 731 729 727 727 726 725 724 723 723 723 722 722 722 719 716 712 708 706 704 702 699 695 693
758 755 753 750 747 745 741 737 735 736 735 733 735 735 737 738 738 735 733 731 729 728 726 725 724 723 722 722 722 723 722 722 719 717 715 711 705 701 696 694 693 690 687
753 750 746 744 740 739 736 737 737 736 736 737 738 739 739 737 732 729 730 730 730 727 725 723 722 721 720 718 719 720 721 720 718 715 711 706 701 695 692 689 688 687 684